Tracking 29892 objects as of 21-Nov-2024
HD Live streaming from Space Station
objects crossing your sky now

IRIDIUM 33 DEB

Track IRIDIUM 33 DEB now!
10-day predictions


NORAD ID: 34487
Int'l Code: 1997-051GC
Perigee: 736.2 km
Apogee: 780.0 km
Inclination: 86.3 °
Period: 99.8 minutes
Semi major axis: 7129 km
RCS: 0.0084 m2 (small)
Launch date: September 14, 1997
Source: United States (US)
Launch site: TYURATAM MISSILE AND SPACE COMPLEX (TTMTR)

Note: This is SATELLITE DEBRIS
Your satellite tracking list
Your tracking list is empty




NASA's NSSDC Master Catalog

Two Line Element Set (TLE):
1 34487U 97051GC  24325.58181819  .00001139  00000-0  33769-3 0  9990
2 34487  86.3471 178.8916 0030674 334.1307  55.2087 14.42285305826667
Source of the keplerian elements: AFSPC